TimeCST,TemperatureF,Dew PointF,Humidity,Sea Level PressureIn,VisibilityMPH,Wind Direction,Wind SpeedMPH,Gust SpeedMPH,PrecipitationIn,Events,Conditions,WindDirDegrees,DateUTC
12:15 AM,8.6,1.4,73,30.45,10.0,SSW,5.8,-,N/A,,Clear,210,2013-11-29 06:15:00
12:35 AM,8.6,1.4,73,30.45,10.0,SSW,4.6,-,N/A,,Clear,210,2013-11-29 06:35:00
12:55 AM,8.6,3.2,79,30.44,10.0,South,4.6,-,N/A,,Clear,190,2013-11-29 06:55:00
1:15 AM,8.6,1.4,73,30.43,10.0,South,4.6,-,N/A,,Clear,190,2013-11-29 07:15:00
1:35 AM,8.6,1.4,73,30.43,10.0,South,4.6,-,N/A,,Clear,190,2013-11-29 07:35:00
1:55 AM,8.6,3.2,79,30.42,10.0,South,3.5,-,N/A,,Clear,180,2013-11-29 07:55:00
2:15 AM,8.6,1.4,73,30.42,10.0,South,5.8,-,N/A,,Clear,170,2013-11-29 08:15:00
2:35 AM,10.4,3.2,73,30.43,10.0,South,8.1,-,N/A,,Clear,190,2013-11-29 08:35:00
2:55 AM,10.4,3.2,73,30.43,10.0,South,8.1,-,N/A,,Clear,190,2013-11-29 08:55:00
3:15 AM,10.4,1.4,67,30.42,10.0,South,9.2,-,N/A,,Clear,190,2013-11-29 09:15:00
3:35 AM,12.2,5.0,73,30.41,10.0,South,6.9,-,N/A,,Clear,180,2013-11-29 09:35:00
3:55 AM,12.2,5.0,73,30.41,10.0,South,6.9,-,N/A,,Clear,180,2013-11-29 09:55:00
4:15 AM,12.2,3.2,67,30.40,10.0,South,6.9,-,N/A,,Clear,180,2013-11-29 10:15:00
4:35 AM,12.2,5.0,73,30.39,10.0,South,4.6,-,N/A,,Clear,170,2013-11-29 10:35:00
4:55 AM,12.2,3.2,67,30.40,10.0,SSE,5.8,-,N/A,,Clear,160,2013-11-29 10:55:00
5:15 AM,12.2,5.0,73,30.39,10.0,SSE,9.2,-,N/A,,Clear,160,2013-11-29 11:15:00
5:35 AM,12.2,5.0,73,30.38,10.0,SSE,9.2,-,N/A,,Clear,160,2013-11-29 11:35:00
5:55 AM,14.0,6.8,73,30.38,10.0,South,8.1,-,N/A,,Clear,170,2013-11-29 11:55:00
6:15 AM,15.8,6.8,68,30.37,10.0,SSE,9.2,-,N/A,,Clear,160,2013-11-29 12:15:00
6:35 AM,15.8,6.8,68,30.37,10.0,SSE,9.2,-,N/A,,Clear,160,2013-11-29 12:35:00
6:55 AM,15.8,6.8,68,30.36,10.0,SSE,10.4,-,N/A,,Clear,160,2013-11-29 12:55:00
7:15 AM,15.8,6.8,68,30.35,10.0,SSE,10.4,-,N/A,,Clear,160,2013-11-29 13:15:00
7:35 AM,15.8,6.8,68,30.35,10.0,SSE,10.4,-,N/A,,Clear,160,2013-11-29 13:35:00
7:55 AM,15.8,6.8,68,30.35,10.0,SSE,10.4,-,N/A,,Clear,160,2013-11-29 13:55:00
8:15 AM,15.8,6.8,68,30.34,10.0,South,12.7,-,N/A,,Clear,170,2013-11-29 14:15:00
8:35 AM,17.6,6.8,63,30.34,10.0,South,15.0,-,N/A,,Clear,170,2013-11-29 14:35:00
8:55 AM,19.4,8.6,63,30.34,10.0,South,15.0,-,N/A,,Clear,170,2013-11-29 14:55:00
9:15 AM,19.4,10.4,68,30.33,10.0,South,12.7,-,N/A,,Clear,170,2013-11-29 15:15:00
9:35 AM,21.2,10.4,63,30.32,10.0,South,12.7,-,N/A,,Clear,170,2013-11-29 15:35:00
9:55 AM,24.8,12.2,59,30.32,10.0,South,13.8,-,N/A,,Clear,180,2013-11-29 15:55:00
10:15 AM,26.6,14.0,59,30.32,10.0,South,16.1,21.9,N/A,,Clear,180,2013-11-29 16:15:00
10:35 AM,28.4,14.0,55,30.32,10.0,South,12.7,-,N/A,,Clear,180,2013-11-29 16:35:00
10:55 AM,30.2,15.8,55,30.30,10.0,South,25.3,31.1,N/A,,Clear,190,2013-11-29 16:55:00
11:15 AM,32.0,15.8,51,30.29,10.0,South,23.0,29.9,N/A,,Clear,190,2013-11-29 17:15:00
11:35 AM,32.0,15.8,51,30.27,10.0,South,18.4,29.9,N/A,,Clear,190,2013-11-29 17:35:00
11:55 AM,33.8,15.8,48,30.25,10.0,South,25.3,29.9,N/A,,Clear,190,2013-11-29 17:55:00
12:15 PM,33.8,15.8,48,30.24,10.0,South,18.4,26.5,N/A,,Clear,190,2013-11-29 18:15:00
12:35 PM,33.8,15.8,48,30.23,10.0,South,19.6,27.6,N/A,,Clear,180,2013-11-29 18:35:00
12:55 PM,35.6,17.6,48,30.21,10.0,South,21.9,25.3,N/A,,Clear,190,2013-11-29 18:55:00
1:15 PM,35.6,17.6,48,30.18,10.0,South,20.7,26.5,N/A,,Clear,180,2013-11-29 19:15:00
1:35 PM,35.6,15.8,44,30.17,10.0,South,20.7,28.8,N/A,,Clear,180,2013-11-29 19:35:00
1:55 PM,35.6,17.6,48,30.15,10.0,South,24.2,28.8,N/A,,Clear,180,2013-11-29 19:55:00
2:15 PM,37.4,17.6,45,30.13,10.0,South,24.2,-,N/A,,Clear,180,2013-11-29 20:15:00
2:35 PM,35.6,19.4,52,30.12,10.0,South,27.6,33.4,N/A,,Clear,180,2013-11-29 20:35:00
2:55 PM,37.4,19.4,48,30.11,10.0,South,25.3,31.1,N/A,,Clear,180,2013-11-29 20:55:00
3:15 PM,37.4,19.4,48,30.11,10.0,South,23.0,31.1,N/A,,Clear,170,2013-11-29 21:15:00
3:35 PM,37.4,19.4,48,30.10,10.0,South,17.3,26.5,N/A,,Clear,170,2013-11-29 21:35:00
3:55 PM,37.4,19.4,48,30.10,10.0,South,17.3,26.5,N/A,,Clear,180,2013-11-29 21:55:00
4:15 PM,35.6,19.4,52,30.11,10.0,South,12.7,-,N/A,,Clear,180,2013-11-29 22:15:00
4:35 PM,35.6,19.4,52,30.11,10.0,South,9.2,-,N/A,,Clear,170,2013-11-29 22:35:00
4:55 PM,33.8,19.4,56,30.10,10.0,South,12.7,-,N/A,,Clear,180,2013-11-29 22:55:00
5:15 PM,33.8,19.4,56,30.10,10.0,SSE,6.9,-,N/A,,Clear,160,2013-11-29 23:15:00
5:35 PM,32.0,17.6,55,30.10,10.0,SSE,6.9,-,N/A,,Clear,160,2013-11-29 23:35:00
5:55 PM,32.0,17.6,55,30.10,10.0,SSE,6.9,-,N/A,,Clear,150,2013-11-29 23:55:00
6:15 PM,30.2,17.6,60,30.10,10.0,SSE,6.9,-,N/A,,Clear,150,2013-11-30 00:15:00
6:35 PM,30.2,17.6,60,30.10,10.0,SSE,8.1,-,N/A,,Clear,160,2013-11-30 00:35:00
6:55 PM,30.2,17.6,60,30.10,10.0,SSE,9.2,-,N/A,,Clear,150,2013-11-30 00:55:00
7:15 PM,28.4,17.6,64,30.09,10.0,SSE,10.4,-,N/A,,Clear,150,2013-11-30 01:15:00
7:35 PM,28.4,17.6,64,30.08,10.0,SSE,10.4,-,N/A,,Clear,160,2013-11-30 01:35:00
7:55 PM,28.4,17.6,64,30.07,10.0,SSE,10.4,-,N/A,,Clear,150,2013-11-30 01:55:00
8:15 PM,26.6,17.6,69,30.06,10.0,SSE,10.4,-,N/A,,Clear,150,2013-11-30 02:15:00
8:35 PM,26.6,17.6,69,30.05,10.0,SSE,10.4,-,N/A,,Clear,160,2013-11-30 02:35:00
8:55 PM,26.6,17.6,69,30.04,10.0,SSE,8.1,-,N/A,,Clear,160,2013-11-30 02:55:00
9:15 PM,26.6,17.6,69,30.05,10.0,SSE,5.8,-,N/A,,Clear,160,2013-11-30 03:15:00
9:35 PM,28.4,19.4,69,30.04,10.0,SSE,6.9,-,N/A,,Clear,150,2013-11-30 03:35:00
9:55 PM,28.4,19.4,69,30.03,10.0,SSE,9.2,-,N/A,,Clear,150,2013-11-30 03:55:00
10:15 PM,30.2,21.2,69,30.03,10.0,SE,8.1,-,N/A,,Clear,140,2013-11-30 04:15:00
10:35 PM,33.8,21.2,60,30.03,10.0,South,12.7,-,N/A,,Clear,190,2013-11-30 04:35:00
10:55 PM,33.8,21.2,60,30.03,10.0,SSW,16.1,-,N/A,,Clear,200,2013-11-30 04:55:00
11:15 PM,33.8,21.2,60,30.02,10.0,SSW,13.8,-,N/A,,Clear,200,2013-11-30 05:15:00
11:35 PM,33.8,21.2,60,30.01,10.0,South,13.8,-,N/A,,Clear,190,2013-11-30 05:35:00
11:55 PM,32.0,23.0,69,30.01,10.0,SSW,12.7,-,N/A,,Clear,200,2013-11-30 05:55:00